Back to catalog

FENGYUN 1C DEB

AlivePO
NORAD 31436·DEBRIS·🇨🇳 China

Launched May 10, 1999 from Taiyuan Satellite Launch Center

Loading…

Next Passes (next 24 hours)

TLE

FreshSource: Space-Track

Epoch: Sep 14, 2026, 05:36 UTC

1 31436U 99025BTY 26257.23350248  .00635927  00000-0  75895-2 0  9999
2 31436  98.8514 161.4868 0015507  90.9948  59.9161 15.58824939 10483

Track FENGYUN 1C DEB in real time with AllMySat

Download on the App Store